This is the latest recevied weather packets stored in our database for station/object K1PM-WX. If no packets are shown the sender has not sent any weather packets the latest 10 day(s).
| Time | Temp. | Humidity | Pressure | Rain* | Wind** | Luminosity | Snow |
|---|---|---|---|---|---|---|---|
| 1778199536 | 7.78° C | 72% | 1033 hPa | 0 mm | - | - | - |
| 1778199237 | 7.78° C | 71% | 1033 hPa | 0 mm | - | - | - |
| 1778198937 | 7.78° C | 69% | 1033 hPa | 0 mm | - | - | - |
| 1778198636 | 8.33° C | 67% | 1033 hPa | 0 mm | - | - | - |
| 1778198337 | 8.89° C | 63% | 1033 hPa | 0 mm | - | - | - |
| 1778198036 | 9.44° C | 57% | 1033 hPa | 0 mm | - | - | - |
| 1778197736 | 10° C | 54% | 1033 hPa | 0 mm | - | - | - |
| 1778197437 | 10° C | 54% | 1033 hPa | 0 mm | - | - | - |
| 1778197137 | 10.56° C | 54% | 1033 hPa | 0 mm | - | - | - |
| 1778196837 | 10.56° C | 54% | 1033 hPa | 0 mm | - | - | - |
| 1778196537 | 10.56° C | 54% | 1033 hPa | 0 mm | - | - | - |
| 1778196237 | 11.11° C | 54% | 1033 hPa | 0 mm | - | - | - |
| 1778195936 | 11.11° C | 55% | 1033 hPa | 0 mm | - | - | - |
| 1778195637 | 11.11° C | 56% | 1033 hPa | 0 mm | - | - | - |
| 1778195337 | 11.11° C | 57% | 1033 hPa | 0 mm | - | - | - |
| 1778195037 | 11.11° C | 57% | 1033 hPa | 0 mm | - | - | - |
| 1778194737 | 11.67° C | 57% | 1033 hPa | 0 mm | - | - | - |
| 1778194436 | 12.22° C | 56% | 1033 hPa | 0 mm | - | - | - |
| 1778194137 | 12.22° C | 56% | 1033 hPa | 0 mm | - | - | - |
| 1778193837 | 12.22° C | 55% | 1033 hPa | 0 mm | - | - | - |
| 1778193537 | 11.67° C | 54% | 1033 hPa | 0 mm | - | - | - |
| 1778193236 | 12.22° C | 54% | 1033 hPa | 0 mm | - | - | - |
| 1778192937 | 11.67° C | 54% | 1033 hPa | 0 mm | - | - | - |
| 1778192637 | 11.67° C | 54% | 1033 hPa | 0 mm | - | - | - |
| 1778192338 | 12.22° C | 55% | 1033 hPa | 0 mm | - | - | - |
* Rain latest hour (hover to see other rain measurements)
** Current wind speed in m/s (hover to see current wind gust speed)